Location: *
(2.5500°S, 65.9667°W)
Time: 22:07:54
(UTC+00:00)

SRMSAT - Pass Details

Date: 01 July 2022
Orbit: 848 x 865 km, 20.0° (Epoch: 15 August)

Event Time Altitude Azimuth Distance (km) Brightness Sun altitude
Exits shadow 08:36:32 33° 324° (NW) 1,380 ? -26.5°
Maximum altitude 08:38:53 53° 21° (NNE) 1,030 ? -26.0°
Drops below altitude 10° 08:44:39 10° 97° (E) 2,466 ? -24.7°
Sets 08:47:16 0° 102° (ESE) 3,405 ? -24.1°
